Altus, OK

5:04 AM CDT on July 24, 2017 (GMT -0500)
Altus Municipal

Weather History for KAXS - July, 2013

Change the Weather History Date:

Tuesday, July 30, 2013

  Actual Average (KLTS) Record (KLTS)
Temperature  
Mean Temperature 87 °F -  
Max Temperature 98 °F 95 °F 109 °F (2012)
Min Temperature 77 °F 71 °F 64 °F (2004)
Cooling Degree Days 22    
Growing Degree Days 37 (Base 50)    
Moisture  
Dew Point 65 °F    
Average Humidity 49    
Maximum Humidity 67    
Minimum Humidity 32    
Precipitation  
Precipitation 0.00 in - - ()
Sea Level Pressure  
Sea Level Pressure 30.01 in    
Wind  
Wind Speed 10 mph (ENE)    
Max Wind Speed 17 mph    
Max Gust Speed 28 mph    
Visibility 10 miles    
Events Thunderstorm    
Averages and records for this station are not official NWS values.
T = Trace of Precipitation, MM = Missing Value Source: NWS Daily Summary

Daily Weather History Graph

Daily Weather History Graph

Search for Another Location

Airport or City:

Trip Planner

Search our weather history database for the weather conditions in past years. The results will help you decide how hot, cold, wet, or windy it might be!

Date:

Astronomy

Jul. 30, 2013 Rise Set
Actual Time 6:46 AM CDT 8:40 PM CDT
Civil Twilight 6:18 AM CDT 9:08 PM CDT
Nautical Twilight 5:44 AM CDT 9:42 PM CDT
Astronomical Twilight 5:08 AM CDT 10:18 PM CDT
Moon 1:02 AM CDT (7/30) 3:03 PM CDT (7/30)
Length of Visible Light 14h 50m
Length of Day
13h 54m
Last Quarter, 41% of the Moon is Illuminated
Jul 30
Last Quarter
Aug 6
New
Aug 14
First Quarter
Aug 20
Full
Aug 28
Last Quarter

Hourly Weather History & Observations

Time (CDT) Temp. Heat Index Dew Point Humidity Pressure Visibility Wind Dir Wind Speed Gust Speed Precip Events Conditions
12:15 AM 87.6 °F 88.5 °F 63.5 °F 44% 29.92 in 10.0 mi South 12.7 mph - N/A   Clear
12:35 AM 86.7 °F 87.8 °F 63.9 °F 46% 29.93 in 10.0 mi South 10.4 mph - N/A   Clear
12:55 AM 85.5 °F 86.8 °F 64.4 °F 49% 29.94 in 10.0 mi South 8.1 mph - N/A   Clear
1:15 AM 84.7 °F 86.3 °F 64.8 °F 51% 29.95 in 10.0 mi South 5.8 mph - N/A   Clear
1:35 AM 83.7 °F 85.5 °F 65.3 °F 54% 29.97 in 10.0 mi ESE 3.5 mph - N/A   Clear
1:55 AM 83.3 °F 85.1 °F 65.3 °F 54% 29.97 in 10.0 mi East 4.6 mph - N/A   Clear
2:15 AM 82.6 °F 84.5 °F 65.7 °F 56% 30.00 in 10.0 mi NNE 13.8 mph - N/A   Clear
2:35 AM 84.2 °F 85.8 °F 64.9 °F 52% 30.01 in 10.0 mi NNE 12.7 mph 19.6 mph N/A   Scattered Clouds
2:55 AM 81.7 °F 83.3 °F 64.6 °F 56% 30.02 in 10.0 mi NE 13.8 mph 27.6 mph N/A   Scattered Clouds
3:15 AM 80.6 °F 82.0 °F 63.7 °F 56% 30.03 in 10.0 mi NNE 15.0 mph 19.6 mph N/A Thunderstorm Clear
3:35 AM 79.9 °F - 62.2 °F 55% 30.02 in 10.0 mi NE 17.3 mph - N/A   Scattered Clouds
3:55 AM 79.2 °F - 62.4 °F 56% 30.02 in 10.0 mi ENE 11.5 mph - N/A   Scattered Clouds
4:15 AM 78.3 °F - 62.2 °F 58% 30.02 in 10.0 mi ENE 10.4 mph - N/A   Clear
4:35 AM 77.4 °F - 61.9 °F 59% 30.02 in 10.0 mi ENE 9.2 mph - N/A   Clear
4:55 AM 77.2 °F - 62.1 °F 59% 30.01 in 10.0 mi East 12.7 mph - N/A   Clear
5:15 AM 77.4 °F - 62.8 °F 61% 30.01 in 10.0 mi East 13.8 mph - N/A   Clear
5:35 AM 77.0 °F - 63.9 °F 64% 30.01 in 10.0 mi East 11.5 mph - N/A   Clear
5:55 AM 77.0 °F - 64.6 °F 65% 30.00 in 10.0 mi East 11.5 mph - N/A   Clear
6:15 AM 77.9 °F - 65.1 °F 65% 30.00 in 10.0 mi East 10.4 mph - N/A   Clear
6:35 AM 79.2 °F - 64.8 °F 61% 30.00 in 10.0 mi ESE 11.5 mph - N/A   Clear
6:55 AM 77.9 °F - 64.9 °F 64% 30.00 in 10.0 mi SE 15.0 mph - N/A   Clear
7:15 AM 77.9 °F - 64.8 °F 64% 30.00 in 10.0 mi SE 11.5 mph - N/A   Clear
7:35 AM 77.5 °F - 64.9 °F 65% 30.00 in 10.0 mi SE 12.7 mph - N/A   Clear
7:55 AM 78.4 °F - 65.3 °F 64% 30.00 in 10.0 mi SSE 12.7 mph - N/A   Clear
8:15 AM 80.1 °F 82.0 °F 65.3 °F 61% 29.99 in 10.0 mi SSE 13.8 mph - N/A   Clear
8:35 AM 82.2 °F 83.7 °F 64.0 °F 54% 30.00 in 10.0 mi South 12.7 mph 18.4 mph N/A   Clear
8:55 AM 84.0 °F 84.7 °F 62.6 °F 48% 30.00 in 10.0 mi South 13.8 mph - N/A   Clear
9:15 AM 84.6 °F 85.9 °F 64.2 °F 50% 30.01 in 10.0 mi South 10.4 mph - N/A   Clear
9:35 AM 85.3 °F 86.8 °F 64.6 °F 50% 30.03 in 10.0 mi SW 4.6 mph - N/A   Clear
9:55 AM 86.2 °F 88.2 °F 65.3 °F 50% 30.04 in 10.0 mi SSW 4.6 mph - N/A   Clear
10:15 AM 87.3 °F 89.5 °F 65.8 °F 49% 30.04 in 10.0 mi West 6.9 mph - N/A   Clear
10:35 AM 87.3 °F 89.5 °F 66.2 °F 49% 30.04 in 10.0 mi SW 8.1 mph - N/A   Clear
10:55 AM 88.7 °F 91.5 °F 66.6 °F 48% 30.04 in 10.0 mi WSW 6.9 mph - N/A   Clear
11:15 AM 89.2 °F 92.0 °F 66.6 °F 47% 30.05 in 10.0 mi WSW 5.8 mph - N/A   Clear
11:35 AM 90.5 °F 93.3 °F 66.2 °F 45% 30.05 in 10.0 mi NW 5.8 mph - N/A   Clear
11:55 AM 91.0 °F 93.4 °F 65.8 °F 43% 30.05 in 10.0 mi NNW 4.6 mph - N/A   Clear
12:15 PM 90.9 °F 93.1 °F 65.3 °F 43% 30.05 in 10.0 mi NW 6.9 mph - N/A   Clear
12:35 PM 92.1 °F 94.0 °F 64.8 °F 40% 30.05 in 10.0 mi Calm Calm - N/A   Clear
12:55 PM 93.4 °F 94.7 °F 63.7 °F 37% 30.04 in 10.0 mi NW 6.9 mph 17.3 mph N/A   Clear
1:35 PM 94.3 °F 96.2 °F 64.4 °F 37% 30.04 in 10.0 mi NNW 8.1 mph - N/A   Clear
1:55 PM 94.1 °F 95.9 °F 64.0 °F 37% 30.03 in 10.0 mi NW 5.8 mph - N/A   Clear
2:15 PM 94.5 °F 96.1 °F 63.9 °F 36% 30.02 in 10.0 mi Calm Calm - N/A   Clear
2:35 PM 95.4 °F 97.1 °F 63.7 °F 35% 30.02 in 10.0 mi ENE 3.5 mph - N/A   Clear
2:55 PM 96.6 °F 98.7 °F 63.9 °F 34% 30.02 in 10.0 mi NE 6.9 mph - N/A   Clear
3:15 PM 96.4 °F 97.9 °F 63.3 °F 33% 30.02 in 10.0 mi NNE 4.6 mph - N/A   Clear
3:35 PM 96.3 °F 97.6 °F 62.8 °F 33% 30.02 in 10.0 mi Calm Calm - N/A   Clear
3:55 PM 97.2 °F 99.1 °F 63.5 °F 33% 30.01 in 10.0 mi Calm Calm - N/A   Clear
4:15 PM 97.2 °F 98.6 °F 63.1 °F 32% 30.00 in 10.0 mi NW 3.5 mph - N/A   Clear
4:35 PM 97.2 °F 98.6 °F 63.0 °F 32% 30.00 in 10.0 mi SW 3.5 mph - N/A   Clear
4:55 PM 97.2 °F 99.1 °F 63.7 °F 33% 30.00 in 10.0 mi Calm Calm - N/A   Clear
5:15 PM 97.9 °F 100.3 °F 63.9 °F 33% 30.00 in 10.0 mi NE 9.2 mph - N/A   Clear
5:35 PM 96.4 °F 100.0 °F 66.0 °F 37% 29.99 in 10.0 mi NNE 12.7 mph 16.1 mph N/A   Clear
5:55 PM 96.1 °F 99.9 °F 66.6 °F 38% 30.00 in 10.0 mi NE 9.2 mph - N/A   Clear
6:15 PM 96.6 °F 100.3 °F 66.2 °F 37% 29.99 in 10.0 mi NE 8.1 mph - N/A   Clear
6:35 PM 96.1 °F 99.9 °F 66.9 °F 38% 29.99 in 10.0 mi NE 10.4 mph - N/A   Clear
6:55 PM 95.9 °F 100.1 °F 66.9 °F 39% 29.99 in 10.0 mi ENE 8.1 mph - N/A   Clear
7:15 PM 95.0 °F 99.0 °F 67.3 °F 40% 29.99 in 10.0 mi NE 11.5 mph - N/A   Clear
7:35 PM 94.3 °F 98.2 °F 67.3 °F 41% 29.99 in 10.0 mi ENE 9.2 mph - N/A   Clear
7:55 PM 93.4 °F 97.0 °F 67.5 °F 42% 29.99 in 10.0 mi NE 11.5 mph - N/A   Clear
8:15 PM 92.3 °F 96.1 °F 67.6 °F 44% 30.00 in 10.0 mi NE 11.5 mph - N/A   Clear
8:35 PM 91.2 °F 95.0 °F 68.0 °F 46% 30.01 in 10.0 mi NE 10.4 mph - N/A   Clear
8:55 PM 89.8 °F 93.8 °F 68.2 °F 49% 30.02 in 10.0 mi NE 9.2 mph - N/A   Clear
9:15 PM 88.9 °F 93.0 °F 68.5 °F 51% 30.03 in 10.0 mi NE 6.9 mph - N/A   Clear
9:35 PM 87.8 °F 91.8 °F 68.9 °F 53% 30.04 in 10.0 mi NE 9.2 mph - N/A   Clear
9:55 PM 87.1 °F 91.3 °F 69.3 °F 55% 30.05 in 10.0 mi NE 8.1 mph - N/A   Clear
10:15 PM 86.5 °F 91.0 °F 69.8 °F 57% 30.06 in 10.0 mi NE 12.7 mph 17.3 mph N/A   Clear
10:35 PM 85.3 °F 90.4 °F 70.7 °F 62% 30.07 in 10.0 mi NE 12.7 mph - N/A   Clear
10:55 PM 84.7 °F 89.7 °F 70.9 °F 63% 30.07 in 10.0 mi NE 15.0 mph - N/A   Clear
11:15 PM 84.0 °F 88.7 °F 70.9 °F 64% 30.07 in 10.0 mi NE 12.7 mph - N/A   Clear
11:35 PM 83.5 °F 88.2 °F 70.9 °F 66% 30.07 in 10.0 mi NE 11.5 mph - N/A   Clear
11:55 PM 82.9 °F 87.5 °F 70.9 °F 67% 30.07 in 10.0 mi NE 10.4 mph - N/A   Clear